Regional Weather Roundup
Issued by NWS

Home | Current Version | Previous Version | Graphics & Text | Print | Product List | Glossary On
Versions: 1 2 3 4 5 6 7 8 9 10 11 12 13 14 15 16 17 18 19 20 21 22 23 24 25 26 27
000
ASUS45 KBOU 200906
RWRCO

WEATHER ROUNDUP FOR COLORADO
NATIONAL WEATHER SERVICE DENVER/BOULDER CO
300 AM MDT SUN APR 20 2014

NOTE: "FAIR" INDICATES FEW OR NO CLOUDS BELOW 12000 FEET WITH NO
SIGNIFICANT WEATHER AND/OR OBSTRUCTIONS TO VISIBILITY.

COZ001>005-013-030-031-201000-
...NORTHWEST COLORADO...

CITY           SKY/WX    TMP DP  RH WIND       PRES   REMARKS
CRAIG          CLEAR     33  32  96 CALM      30.13S
HAYDEN         CLEAR     37  34  87 CALM      30.16S
MEEKER         CLEAR     38  34  85 E6        30.14S
MOUNT WERNER   CLEAR     36  32  87 W7        30.28S
STEAMBOAT SPGS CLEAR     37  34  88 SE5       30.15F
WALDEN         CLEAR     30  28  93 SE6       30.17F WCI  24
$$

COZ006>008-011-201000-
...WEST CENTRAL VALLEYS...

CITY           SKY/WX    TMP DP  RH WIND       PRES   REMARKS
GRAND JUNCTION CLEAR     47  41  80 SE3       30.08S
MONTROSE       PTCLDY    44  39  82 SE7       30.14R
EAGLE          CLEAR     43  39  87 CALM      30.17R
RIFLE          CLEAR     40  35  83 E3        30.12R
DELTA          MOCLDY    47  39  74 CALM      30.11S
NUCLA            N/A     43  36  75 E3        30.17R
$$

COZ017>023-064>068-201000-
...SOUTHWEST COLORADO...

CITY           SKY/WX    TMP DP  RH WIND       PRES   REMARKS
DURANGO        MOCLDY    38  32  79 NE6       30.12S
CORTEZ         CLEAR     38  32  79 E6        30.12S
PAGOSA SPRINGS MOCLDY    41  32  71 CALM      30.17S
TELLURIDE      MOCLDY    37  34  87 E3        30.21S
WOLF CREEK PAS MOCLDY    30  28  93 CALM      30.29F
$$

COZ009-010-012-014-032>034-037-058>063-201000-
...CENTRAL COLORADO...

CITY           SKY/WX    TMP DP  RH WIND       PRES   REMARKS
ASPEN          PTCLDY    38  31  76 S6        30.16F
BUENA VISTA    CLOUDY    42  38  87 CALM      30.19S
COPPER MTN     CLOUDY    34  30  86 W12       30.31S FOG     WCI  25
BERTHOUD PASS  HAZE      27  18  69 NW16      30.31F VSB 1/4 WCI  14
COTTONWOOD PAS PTCLDY    39  34  81 W5        30.24F
GUNNISON       MOCLDY    36  28  75 CALM      30.21S
KREMMLING      PTCLDY    36  34  93 CALM      30.19S
LEADVILLE      CLOUDY    31  30  96 E5        30.23F FOG     WCI  26
MONARCH PASS   FOG       30  28  93 CALM      30.40F VSB<1/4
SALIDA         MOCLDY    46  43  90 CALM      30.24F
SUNLIGHT       PTCLDY    36  34  93 NW3       30.29S
WILKERSON PASS FOG       32  30  93 NW5       30.30F VSB 1/4 WCI  27
$$

COZ069>075-201000-
...SAN LUIS VALLEY/SANGRE DE CRISTO MOUNTAINS...

CITY           SKY/WX    TMP DP  RH WIND       PRES   REMARKS
ALAMOSA        CLOUDY    47  37  68 CALM      30.14S
LA VETA PASS   RAIN      34  32  93 SW7       30.23S WCI  28
SAGUACHE       CLOUDY    46  36  66 NW13      30.15F
$$

COZ035-036-038>040-201000-
...NORTHERN COLORADO FRONT RANGE...

CITY           SKY/WX    TMP DP  RH WIND       PRES   REMARKS
DENVER INTL AP MOCLDY    49  42  77 SW12      30.05F
DMNS CITY PARK   N/A     51  41  67 S3G9      30.04F
AURORA         MOCLDY    48  41  76 SW8       30.06F
FRONT RANGE AP NOT AVBL
ERIE MUNI ARPT PTCLDY    47  43  88 SW3       30.03F
BOULDER MUN AP PTCLDY    46  43  87 W3        30.03F
CENTENNIAL     PTCLDY    46  39  76 SW7       30.07F
BROOMFIELD     PTCLDY    48  41  76 S8        30.05F
FORT COLLINS   CLEAR     45  39  81 SE6       30.05S
LONGMONT       CLEAR     43  41  93 CALM      30.05F
$$

COZ041-046-047-076>085-087-088-201000-
...PIKES PEAK/PALMER DIVIDE AND SOUTHERN FOOTHILLS...

CITY           SKY/WX    TMP DP  RH WIND       PRES   REMARKS
COLO. SPRINGS  MOCLDY    50  37  61 N12       30.08F
A. F. ACADEMY  MOCLDY    45  38  78 N7        30.09F
ELLICOTT       NOT AVBL
FALCON         MOCLDY    46  36  69 NW10      30.10F
FORT CARSON    MOCLDY    47  39  74 NW7       30.05F
LIMON          MOCLDY    41  39  93 N7        30.05F
MONUMENT HILL  PTCLDY    37  36  93 SW7       30.10F
TRINIDAD       CLOUDY    51  43  74 W16       30.05F
$$

COZ042>045-048>051-090-091-201000-
...NORTHEAST COLORADO...

CITY           SKY/WX    TMP DP  RH WIND       PRES   REMARKS
GREELEY ARPT   CLEAR     45  37  76 CALM      30.04F
AKRON          PTCLDY    47  38  71 SW8       30.03F
BURLINGTON     PTCLDY    47  44  90 NE13      30.00F
WRAY           PTCLDY    43  41  93 W3        30.01S
STERLING       CLEAR     41  37  87 CALM      30.01F
HOLYOKE        PTCLDY    41  36  81 NW3       30.01F
FORT MORGAN    CLEAR     45  41  86 W9        30.03F
$$

COZ086-089-092>099-201000-
...SOUTHEAST COLORADO...

CITY           SKY/WX    TMP DP  RH WIND       PRES   REMARKS
PUEBLO         CLOUDY    54  43  66 W6        30.03S
LA JUNTA       MOCLDY    53  43  68 NW14      29.97R
LAMAR          MOCLDY    53  43  68 S6        29.91F
SPRINGFIELD      N/A     51  45  79 S14       29.97F
$$



USA.gov is the U.S. government's official web portal to all federal, state and local government web resources and services.